Voltar ao catálogo

SES 17

AtivoComunicaçõesGEO
NORAD 49332·PAYLOAD·🇱🇺 Luxembourg

Lançado Oct 24, 2021 de Guiana Space Centre

Loading…

TLE

AtualizadoSource: CelesTrak SupGP

Época: Sep 14, 2026, 23:44 UTC

1 49332C 21095A   26257.98958333 -.00000183  00000+0  00000+0 0  2576
2 49332   0.0378  21.8090 0001069 136.6304 124.6833  1.00270514    18

Acompanhe SES 17 em tempo real com AllMySat

Download on the App Store